Lid_Strength_Index
2 2 2 2 2 3 4 4 4 5 4 4 4 4 5 5 5 5 5 4 4 4 4 4 4 4 4 5 5 -0 -2 -2 3 5 3 3 5 5 6 6 6 8 7 6 6 6 7
1 1 2 2 2 3 4 4 4 4 4 4 4 4 5 5 5 5 4 4 4 4 4 4 3 4 5 7 3 0 1 1 5 5 3 2 5 4 5 6 7 7 7 7 7 7 7
1 1 1 2 2 3 4 4 4 4 5 4 4 5 5 5 5 5 4 4 5 4 3 3 3 3 5 5 2 2 1 3 4 4 2 1 3 5 5 7 5 6 9 8 8 8 8
1 1 1 2 2 3 4 4 4 4 4 5 5 5 5 5 5 4 4 4 4 4 3 3 3 3 5 2 1 1 -0 4 3 2 1 1 3 5 6 5 6 8 9 13 9 8 8
2 1 1 2 2 3 4 4 4 4 4 4 5 5 5 5 4 4 4 4 3 3 2 2 3 3 5 4 4 1 0 3 3 3 1 1 4 6 6 7 10 10 14 14 12 8 9
2 1 2 2 3 3 4 4 4 4 4 4 5 5 5 5 5 4 4 4 2 3 2 2 2 4 3 5 2 1 0 1 3 3 3 3 5 8 7 9 13 13 12 13 13 11 10
2 2 2 3 3 3 4 4 4 4 4 4 4 4 4 4 4 4 4 2 3 4 3 4 4 4 3 1 1 2 1 2 3 4 6 4 7 10 8 7 8 9 11 13 11 9 11
2 2 2 3 4 4 4 4 4 4 4 4 4 4 4 4 4 4 4 3 3 2 5 2 3 3 2 1 4 3 2 5 6 7 5 6 8 7 6 7 9 9 11 13 11 10 11
3 2 2 3 3 3 4 4 4 4 5 4 4 4 4 4 4 4 3 2 -0 0 5 4 3 3 3 2 4 4 3 5 6 7 6 7 6 6 7 7 9 9 10 12 13 11 10
3 3 3 3 3 4 4 4 4 4 5 4 4 4 4 4 5 1 2 -0 -0 1 8 7 5 4 3 3 5 2 2 4 5 7 6 6 5 6 8 8 8 11 9 11 12 14 16
2 3 3 3 3 4 4 4 4 5 5 4 4 4 4 5 3 3 1 -1 -0 2 16 6 5 1 3 5 4 4 2 4 6 6 6 7 6 7 7 7 7 10 8 10 11 13 13
2 2 3 3 3 4 4 4 4 5 5 4 4 4 4 3 2 1 -0 -0 2 9 15 7 5 5 6 5 5 4 4 3 3 5 5 6 4 5 6 5 6 6 9 10 12 14 18
3 3 3 3 3 3 4 4 4 5 5 4 5 5 5 2 2 -1 -0 2 10 13 6 8 7 6 6 6 6 5 6 6 7 9 8 7 6 5 5 7 6 7 10 16 19 18 18
3 3 3 3 3 3 4 4 4 5 5 5 5 6 3 1 -1 -1 1 6 13 8 8 6 6 6 9 7 6 6 6 7 6 6 8 9 10 7 5 6 8 8 9 14 19 19 17
3 3 3 3 3 4 3 4 5 5 5 5 6 1 1 -0 -0 0 4 10 10 7 6 7 6 8 8 7 7 7 7 7 6 6 9 9 9 6 5 5 6 8 10 7 12 15 16
3 3 3 3 4 3 3 4 5 5 5 5 2 1 1 -0 -1 1 6 8 7 5 5 6 9 7 10 8 8 7 8 6 7 5 5 7 10 6 6 5 5 7 6 10 12 18 19
3 3 3 3 3 3 4 4 5 5 5 5 2 4 1 -0 -0 4 8 7 6 4 4 6 7 8 8 9 8 8 8 6 5 6 5 6 8 8 6 7 8 7 8 8 8 11 18
2 3 3 3 3 3 4 4 5 6 5 5 2 6 1 -0 5 5 6 6 7 5 4 5 5 6 7 7 8 8 9 7 5 5 7 6 7 9 9 6 5 6 7 7 10 11 10
3 3 3 3 3 4 4 4 5 6 5 3 4 4 0 1 7 7 5 5 5 5 5 5 6 6 5 7 8 8 8 5 5 5 7 6 8 10 10 8 6 8 7 7 7 8 10
2 2 3 3 4 4 4 5 5 6 5 2 3 6 3 3 3 5 6 6 6 4 5 5 5 5 6 7 6 8 7 6 5 5 4 4 7 9 12 11 9 10 8 7 7 10 10
2 3 3 3 3 4 5 5 5 6 5 2 3 5 4 6 5 5 5 6 7 7 5 4 6 6 6 8 7 8 6 7 5 6 5 5 9 8 8 8 8 8 9 8 8 8 9
3 3 3 3 3 4 5 5 5 6 5 2 4 5 4 4 4 5 6 6 6 6 6 6 6 6 6 7 7 8 7 6 7 6 6 5 8 7 9 7 8 9 8 8 7 7 7
4 4 3 3 3 3 5 4 5 5 5 2 1 1 3 5 5 6 6 6 6 5 5 5 5 6 6 6 4 4 4 4 5 7 9 9 8 10 12 9 9 11 8 8 7 6 7
3 3 3 2 2 3 3 4 4 4 4 2 1 2 5 6 5 5 5 6 6 5 6 5 5 5 4 2 3 3 4 4 5 5 5 7 7 8 12 11 17 10 7 7 9 9 8
4 3 3 3 3 3 3 4 3 4 4 3 1 2 4 6 5 5 5 5 5 4 5 5 4 3 2 4 6 8 8 7 7 6 5 5 7 9 13 16 12 9 8 8 10 11 7
5 5 4 3 3 4 3 3 3 4 3 3 0 -0 3 6 6 4 5 5 6 5 5 4 3 2 3 5 7 11 12 13 13 8 5 6 6 9 11 14 19 12 7 6 6 13 6
5 5 4 4 4 4 3 3 3 4 3 3 1 -0 2 5 3 3 5 5 4 4 5 5 4 4 3 6 8 9 12 10 15 11 13 11 10 10 10 13 13 8 7 6 14 12 6
5 4 4 4 4 4 4 3 3 4 3 3 1 -1 2 4 3 2 3 4 4 4 6 5 5 5 5 7 8 8 8 8 9 8 11 13 14 12 11 12 15 6 8 12 8 5 5
3 4 4 4 4 4 4 4 4 4 3 2 2 -1 -1 3 3 1 1 1 2 2 3 3 4 5 5 6 6 6 8 7 8 10 6 9 8 10 12 12 6 4 5 4 4 5 5